This is the latest recevied weather packets stored in our database for station/object LU5DTF-1. If no packets are shown the sender has not sent any weather packets the latest 10 day(s).
| Time | Temp. | Humidity | Pressure | Rain* | Wind** | Luminosity | Snow |
|---|---|---|---|---|---|---|---|
| 1778109600 | 15° C | 95% | 1002.9 hPa | 19.3 mm | - | - | - |
| 1778109300 | 15° C | 95% | 1003 hPa | 20.07 mm | - | - | - |
| 1778109001 | 15° C | 94% | 1003.4 hPa | 19.81 mm | - | - | - |
| 1778108700 | 15° C | 94% | 1003.2 hPa | 19.3 mm | - | - | - |
| 1778108400 | 15° C | 94% | 1003.6 hPa | 18.8 mm | - | - | - |
| 1778108100 | 15° C | 95% | 1003.1 hPa | 18.29 mm | - | - | - |
| 1778107801 | 15° C | 94% | 1003.5 hPa | 17.78 mm | - | - | - |
| 1778107500 | 15° C | 94% | 1003.3 hPa | 17.27 mm | - | - | - |
| 1778107200 | 15° C | 94% | 1003.5 hPa | 16.26 mm | - | - | - |
| 1778106900 | 15° C | 94% | 1004 hPa | 14.48 mm | - | - | - |
| 1778106601 | 15° C | 94% | 1003.7 hPa | 10.67 mm | - | - | - |
| 1778106300 | 15° C | 94% | 1003.1 hPa | 9.14 mm | - | - | - |
| 1778106000 | 15° C | 94% | 1003.4 hPa | 7.11 mm | - | - | - |
| 1778105700 | 15° C | 94% | 1003.4 hPa | 6.35 mm | - | - | - |
| 1778105400 | 15° C | 94% | 1003.9 hPa | 5.84 mm | - | - | - |
| 1778105100 | 15° C | 94% | 1003.4 hPa | 6.1 mm | - | - | - |
| 1778104800 | 15° C | 94% | 1003.4 hPa | 6.1 mm | - | - | - |
| 1778104500 | 15° C | 94% | 1004.7 hPa | 6.86 mm | - | - | - |
| 1778104200 | 15° C | 94% | 1004.2 hPa | 7.11 mm | - | - | - |
| 1778103900 | 15° C | 94% | 1004.3 hPa | 9.65 mm | - | - | - |
| 1778103300 | 15° C | 94% | 1004.5 hPa | 9.4 mm | - | - | - |
| 1778103000 | 15° C | 94% | 1004.8 hPa | 8.89 mm | - | - | - |
| 1778102700 | 15° C | 94% | 1004.8 hPa | 7.87 mm | - | - | - |
| 1778102400 | 15° C | 94% | 1005 hPa | 7.87 mm | - | - | - |
| 1778102101 | 14.44° C | 94% | 1005.1 hPa | 7.87 mm | - | - | - |
* Rain latest hour (hover to see other rain measurements)
** Current wind speed in m/s (hover to see current wind gust speed)